Location: Wells
(51.2093°N, 2.6446°W)
Time: 08:01:54
(UTC+01:00)

SO-50 - Pass Details

Date: 14 March 2026
Orbit: 567 x 673 km, 64.6° (Epoch: 17 April)

Event Time Altitude Azimuth Distance (km) Brightness Sun altitude
Rises 19:38:18 0° 236° (SW) 2,943 ? -14.0°
Reaches altitude 10° 19:40:36 10° 241° (WSW) 2,052 ? -14.3°
Maximum altitude 19:45:11 53° 319° (NW) 812 ? -15.0°
Drops below altitude 10° 19:49:54 10° 37° (NE) 2,107 ? -15.7°
Enters shadow 19:52:13 - 42° (NE) 3,001 ? -16.1°
